www.pogodaiklimat.ru
Время
и дата
11:53 05.02
12:53 05.02
13:53 05.02
14:53 05.02
15:53 05.02
16:53 05.02
17:53 05.02
18:53 05.02
19:53 05.02
20:53 05.02
21:53 05.02
22:53 05.02
23:53 05.02
00:53 06.02
01:53 06.02
02:53 06.02
03:53 06.02
04:53 06.02
05:53 06.02
06:53 06.02
07:53 06.02
08:53 06.02
09:53 06.02
10:53 06.02
11:53 06.02
12:53 06.02
13:53 06.02
14:53 06.02
15:53 06.02
16:53 06.02
17:04 06.02
17:53 06.02
18:53 06.02
19:53 06.02
20:53 06.02
21:53 06.02
22:53 06.02
23:53 06.02
00:53 07.02
01:53 07.02
02:53 07.02
03:53 07.02
04:53 07.02
05:53 07.02
06:53 07.02
07:53 07.02
08:53 07.02
09:53 07.02
Ветер
(напр.,м/с)
Видим. Явления Облачность Т
(С)
Тd
(С)
f
(%)
Тe
(С)
Тes
(С)
Комфортность P
(гПа)
Po
(гПа)
Тmin
(С)
Tmax
(С)
R
(мм)
R24
(мм)
S
(см)
Ю 4 16 км ясно +4.4 -7.8 41 +1 +5 1013.1 808.4
ЮЗ 5 16 км ясно +6.1 -7.2 38 +3 +6 1011.0 807.0
Ю 4 16 км ясно +6.7 -9.4 31 +4 +8 1009.9 805.9
Ю 5 16 км ясно +6.1 -8.9 33 +3 +5 1009.4 805.4
Ю 4 16 км ясно +3.9 -7.2 44 0 +2 1009.5 804.9
ЮЗ 3 16 км ясно +2.2 -6.7 52 -1 -1 1009.6 804.3 +2.2 +7.2
ЮЗ 4 16 км ясно +0.6 -5.6 63 -4 -4 1010.2 804.3
ЮЗ 3 16 км ясно +1.7 -7.2 52 -2 -2 1009.9 804.1
З 6 16 км ясно +2.8 -7.8 46 -2 -2 1009.0 803.5
З 9 16 км ясно +3.3 -7.8 44 -3 -3 1008.3 803.2
З 12
{16}
16 км ясно +5.0 -8.3 38 -1 -1 1005.7 802.7
З 8 16 км ясно +2.2 -8.3 46 -4 -4 1006.4 802.7 -0.6 +5.0
З 8
{11}
16 км ясно +0.6 -7.2 56 -6 -6 1006.1 802.4
З 6 16 км ясно 0.0 -6.7 61 -6 -6 1005.4 802.2
З 5 16 км ясно -0.6 -7.2 61 -6 -6 1004.3 801.4
З 9
{13}
16 км ясно 0.0 -7.8 56 -7 -7 1004.2 801.4
З 6 16 км ясно -1.1 -8.3 58 -7 -7 1006.1 801.9
СЗ 5 16 км ясно -0.6 -9.4 51 -6 -6 1006.4 801.9 -1.1 +2.2
С 5 16 км ясно -1.1 -9.4 53 -7 -7 1007.8 802.4
С 5 16 км ясно -1.1 -11.1 47 -7 -7 1007.7 802.7
СЗ 8
{12}
16 км ясно -1.7 -11.1 49 -9 -9 1009.2 803.8
СЗ 9
{15}
16 км ясно -0.6 -10.6 47 -8 -8 1009.3 804.3
СЗ 11
{18}
16 км ясно +0.6 -9.4 47 -7 -7 1008.1 804.1
СЗ 12
{19}
16 км ясно +0.6 -7.8 53 -7 -7 1010.7 805.4 -1.7 +1.1
СЗ 9
{16}
16 км 10/10 1380 м 0.0 -6.7 61 -7 -7 1012.1 805.9
СЗ 10
{14}
11 км слабый снег 10/10 960 m
[Ns]
0.0 -6.1 63 -8 -8 1012.6 805.9
СЗ 9
{16}
16 км 5/2 1020 m
[Ac]
0.0 -6.1 63 -7 -7 1013.3 806.5
СЗ 8
{14}
16 км 10/8 1080 m
[Ac]
0.0 -6.1 63 -7 -7 1014.3 807.3
СЗ 8
{16}
16 км 10/8 1800 m
[Ac]
0.0 -6.1 63 -7 -7 1015.8 808.1
СЗ 8
{12}
16 км 8/8 840 м -1.1 -5.6 71 -9 -9 1017.1 809.2 -1.1 +1.1
СЗ 7
{12}
16 км 8/5 840 m
[Ac]
-1.1 -5.6 71 -8 -8 809.2
СЗ 6
{11}
16 км 2/2 990 м -1.7 -6.1 72 -9 -9 1018.4 810.0
СЗ 7
{12}
16 км ясно -1.7 -6.7 69 -9 -9 1019.5 810.8
СЗ 4
{10}
16 км 8/8 1050 m
[Ac]
-1.7 -6.7 69 -7 -7 1020.8 811.3
З 5 16 км ясно -2.8 -7.2 72 -9 -9 1021.3 811.9
З 4 16 км ясно -5.0 -8.9 74 -11 -11 1021.9 812.2
З 3 16 км ясно -5.0 -8.9 74 -10 -10 1022.4 812.4 -5.0 -1.1
З 5 16 км ясно -5.6 -10.6 68 -13 -13 1023.2 812.7
З 3 16 км ясно -5.0 -10.6 65 -10 -10 1022.9 812.7
З 5 16 км ясно -3.9 -10.0 63 -10 -10 1022.6 812.7
З 5 16 км ясно -5.0 -11.1 62 -12 -12 1023.1 813.0
З 6 16 км ясно -4.4 -11.7 57 -12 -12 1022.9 812.7
З 6 16 км ясно -4.4 -11.7 57 -12 -12 1023.2 812.7 -5.6 -3.9
З 8 16 км ясно -3.9 -11.7 55 -12 -12 1023.3 813.0
З 8 16 км ясно -3.9 -11.7 55 -12 -12 1023.5 813.0
З 7 16 км ясно -3.3 -11.7 52 -11 -11 1024.2 813.8
З 7 16 км ясно -0.6 -11.1 45 -7 -7 1024.6 814.3
СЗ 3 16 км ясно +1.7 -10.0 41 -2 0 1025.1 814.9
Местоположение метеостанции Cheyenne Airport: широта 41.1519 долгота -104.8061 высота над уровнем моря 1868 м.
В архиве по умолчанию представлена погода в Шайенне за последние 1-2 суток. Обновление информации о фактической погоде в базе происходит ежечасно! Архивные данные за месяц целиком и за предыдущие месяцы Вы можете получить, выбрав интересующий диапазон дат из раскрывающегося списка и нажав кнопку "Ввод!".
Внимание! Архив погоды МЕТАР в базе сайта по станциям, не включенным в климатический монитор, хранится не более 60 дней. Нет смысла пытаться выбрать более раннюю дату.
*Определитесь, кто Вы:
Внимание! Время в таблицах - местное (без учета летнего времени). Для получения всемирного времени необходимо вычесть поправку, которая равна -7 ч.
Смотрите также архив погоды в соседних городах и на ближайших метеорологических станциях:
Партнеры нашего сайта:      
Пояснения к столбцам:
  • Ветер - указаны скорость ветра в м/с - средняя за 10 мин, порывы в срок и между сроками (в фигурных скобках) и направление, откуда дует ветер: С - северный,
  • СВ - северо-восточный, В - восточный, ЮВ - юго-восточный, Ю - южный, ЮЗ - юго-западный, З - западный, СЗ - северо-западный.
  • Видимость - горизонтальная дальность видимости в метрах или километрах. При видимости от 1 до 10 км при отсутствии осадков обычно наблюдается дымка, при ухудшении видимости до 1 км и менее - туман. В сухую погоду видимость может ухудшаться дымом, пылью или мглою.
  • Явления - указаны атмосферные явления, наблюдавшиеся в срок или в последний час перед сроком; фигурными скобками обозначены явления, наблюдавшиеся между сроками (за 1-3 часа до срока); квадратными скобками обозначены град или гололедные отложения с указанием их диаметра в мм.
  • Облачность - указаны через наклонную черту общая и нижняя облачность в баллах и высота нижней границы облаков в метрах; квадратными скобками обозначены формы облаков: Ci - перистые, Cs - перисто-слоистые, Cc - перисто-кучевые, Ac - высококучевые, As - высокослоистые, Sc - слоисто-кучевые, Ns - слоисто-дождевые, Cu - кучевые, Cb - кучево-дождевые. Подробнее классификацию облаков см. в Атласе облаков (PDF).
  • T - Температура воздуха - температура, измеренная на высоте 2 м над землей.
  • Td - Температура точки росы - температура, при понижении до которой содержащийся в воздухе водяной пар достигнет насыщения.
  • f - Относительная влажность воздуха - влажноcть воздуха, измеренная на высоте 2 м над землей.
  • Te - Эффективная температура - температура, которую ощущает одетый по сезону человек в тени. Характеристика душности погоды. При расчете учитывается влияние влажности воздуха и скорости ветра на теплоощущения человека.
  • Tes - Эффективная температура на солнце - температура, которую ощущает человек, с поправкой на солнечный нагрев. Характеристика знойности погоды. Зависит от высоты солнца над горизонтом, облачности и скорости ветра. Ночью, в пасмурную погоду, а также при ветре 12 м/с и более поправка равна нулю.
  • P - Атмосферное давление - приведенное к уровню моря атмосферное давление.
  • Po - Атмосферное давление - измеренное на уровне метеостанции атмосферное давление.
  • Tmin - Минимальная температура - минимум температуры воздуха на высоте 2 м над землей.
  • Tmax - Максимальная температура - максимум температуры воздуха на высоте 2 м над землей.
  • R - Количество осадков - Количество выпавших осадков за период времени, мм. При наведении курсора мыши на число - период времени, за который выпало указанное количество осадков.
  • R24 - Количество осадков - Количество выпавших осадков за 24 часа, мм.
  • S - Снежный покров - Высота снежного покрова, см. При наведении курсора мыши на число - состояние снежного покрова и степень покрытия местности в баллах.